Location: Bernay
(48.6766°N, 2.9386°E)
Time: 17:02:08
(UTC+00:00)

SL-4 R/B - Pass Details

Date: 12 January 2026
Orbit: 383 x 518 km, 51.6° (Epoch: 16 February)

Event Time Altitude Azimuth Distance (km) Brightness Sun altitude
Rises 17:02:16 0° 291° (WNW) 2,654 6.3 -7.6°
Reaches altitude 10° 17:04:30 10° 289° (WNW) 1,758 5.3 -7.9°
Maximum altitude 17:08:29 71° 206° (SSW) 546 2.2 -8.5°
Drops below altitude 10° 17:12:21 10° 122° (ESE) 1,705 4.2 -9.1°
Enters shadow 17:14:25 - 121° (ESE) 2,529 5.0 -9.4°
